User: anonymous   Login
Location: Unspecified
(0.0000°N, 0.0000°E)
Time: 12:00:53
(UTC+00:00)
Language:

PAKSAT 1R - Orbit

View from above orbital plane
View from above orbital plane
View from above satellite
View from above satellite

Ground track
Ground track

The orbit data is extracted from the following two-line orbital elements,

1 37779U 11042A   14295.71028382  .00000151  00000-0  00000+0 0  6749
2 37779 000.0563 046.8043 0003757 167.2478 110.7090 01.00273391 11726
Epoch (UTC): 22 October 2014 17:02:48
Eccentricity: 0.0003757
inclination: 0.0563°
perigee height: 35770 km
apogee height: 35801 km
right ascension of ascending node: 46.8043°
argument of perigee: 167.2478°
revolutions per day: 1.00273391
mean anomaly at epoch: 110.7090°
orbit number at epoch: 1172

The dashed part of the orbit path shows where the satellite is in the earth's shadow,  

DLR